This is the latest recevied weather packets stored in our database for station/object KB3AWQ. If no packets are shown the sender has not sent any weather packets the latest 10 day(s).
| Time | Temp. | Humidity | Pressure | Rain* | Wind** | Luminosity | Snow |
|---|---|---|---|---|---|---|---|
| 1788536367 | 28.33° C | 72% | 1015 hPa | 0 mm | - | 558 W/m² | - |
| 1788536067 | 28.33° C | 74% | 1015 hPa | 0 mm | - | 840 W/m² | - |
| 1788535767 | 27.78° C | 74% | 1014.9 hPa | 0 mm | - | 657 W/m² | - |
| 1788535466 | 27.78° C | 75% | 1014.9 hPa | 0 mm | - | 660 W/m² | - |
| 1788534879 | 27.78° C | 75% | 1014.8 hPa | 0 mm | - | 630 W/m² | - |
| 1788534567 | 27.78° C | 76% | 1014.9 hPa | 0 mm | - | 420 W/m² | - |
| 1788534268 | 28.33° C | 76% | 1014.9 hPa | 0 mm | - | 203 W/m² | - |
| 1788533967 | 27.78° C | 73% | 1014.9 hPa | 0 mm | - | 244 W/m² | - |
| 1788533667 | 27.78° C | 75% | 1014.8 hPa | 0 mm | - | 826 W/m² | - |
| 1788533367 | 27.22° C | 76% | 1014.8 hPa | 0 mm | - | 747 W/m² | - |
| 1788533066 | 26.67° C | 79% | 1014.7 hPa | 0 mm | - | 743 W/m² | - |
| 1788532767 | 26.67° C | 78% | 1014.8 hPa | 0 mm | - | 212 W/m² | - |
| 1788532467 | 26.67° C | 79% | 1014.9 hPa | 0 mm | - | 721 W/m² | - |
| 1788532176 | 26.67° C | 78% | 1014.9 hPa | 0 mm | - | 294 W/m² | - |
| 1788531867 | 27.22° C | 79% | 1015.1 hPa | 0 mm | - | 709 W/m² | - |
| 1788531567 | 27.22° C | 79% | 1015.1 hPa | 0 mm | - | 304 W/m² | - |
| 1788531266 | 27.22° C | 78% | 1015.2 hPa | 0 mm | - | 264 W/m² | - |
| 1788530966 | 26.67° C | 82% | 1015.2 hPa | 0 mm | - | 326 W/m² | - |
| 1788530667 | 26.67° C | 81% | 1015.2 hPa | 0 mm | - | 587 W/m² | - |
| 1788530367 | 26.11° C | 82% | 1015.1 hPa | 0 mm | - | 566 W/m² | - |
| 1788530067 | 26.11° C | 84% | 1015.2 hPa | 0 mm | - | 548 W/m² | - |
| 1788529767 | 25.56° C | 85% | 1015.1 hPa | 0 mm | - | 631 W/m² | - |
| 1788529467 | 25° C | 87% | 1015.1 hPa | 0 mm | - | 466 W/m² | - |
| 1788528894 | 25° C | 87% | 1015.1 hPa | 0 mm | - | 179 W/m² | - |
| 1788528567 | 25.56° C | 86% | 1015.1 hPa | 0 mm | - | 184 W/m² | - |
* Rain latest hour (hover to see other rain measurements)
** Current wind speed in m/s (hover to see current wind gust speed)